[[{"header":{"parameterUnit":"m.s-1","parameterCategory":1,"la1":30.2991,"la2":30.254,"lo1":-89.0895,"lo2":-89.0444,"dy":0.0017,"dx":0.0017,"nx":28,"ny":28,"refTime":"2024-02-21T09:00:00:Z","depth":0,"parameterNumber":2,"parameterNumberName":"U-component_of_WINDS"},"data":[0,0,0,0,0,0,0,0,0,0,0,0,0,0,0,0,0,0,0,0,0,0,0,0,0,0,0,0,0,0,0,0,0,0,0,0,0,0,0,0,0,0,0,0,0,0,0,0,0,0,0,0,0,0,0,0,0,0,1.3348,1.3347,0,1.3269,1.3268,1.3267,1.3196,1.3195,1.3194,1.3193,1.3113,1.3112,1.311,0,0,0,0,0,0,0,0,0,0,0,0,0,1.3438,1.3437,1.3348,1.3347,1.3346,1.3269,1.3268,1.3267,1.3196,1.3195,1.3194,1.3193,1.3113,1.3112,1.311,0,0,0,0,0,0,0,0,0,0,0,0,0,1.3383,1.3436,1.3348,1.3301,1.3296,1.3269,1.3268,1.3266,1.3196,1.3195,1.3194,1.3193,1.3114,1.3112,1.311,1.3123,0,0,1.3104,1.3103,0,0,0,0,0,0,0,0,1.3386,1.338,1.3309,1.3305,1.3299,1.3241,1.327,1.3218,1.3197,1.3234,1.3193,1.3192,1.3157,1.3151,1.3139,1.3119,1.3116,1.3104,1.3102,1.3101,1.3101,0,0,0,0,0,0,0,1.339,1.3383,1.3317,1.3308,1.3302,1.3284,1.3275,1.326,1.3204,1.3231,1.3226,1.3217,1.3154,1.3141,1.3137,1.3114,1.3104,1.3102,1.3101,1.31,1.3101,1.3103,0,0,0,0,0,0,1.3401,1.3386,1.3319,1.3314,1.334,1.3284,1.3274,1.3261,1.3204,1.3194,1.3218,1.3214,1.3145,1.3139,1.3133,1.3145,1.3102,1.31,1.3098,1.31,1.3102,1.3103,0,0,0,0,0,0,1.3403,1.3396,1.3322,1.3349,1.3338,1.3284,1.327,1.326,1.3247,1.3194,1.3184,1.3216,1.3144,1.3136,1.3126,1.3141,1.3099,1.3097,1.3099,1.3101,1.3102,1.3169,0,0,0,0,0,0,1.3406,1.3397,1.3401,1.3349,1.3337,1.3316,1.3271,1.3259,1.3244,1.3238,1.3189,1.318,1.3142,1.3129,1.3124,1.3138,1.3095,1.3097,1.31,1.3102,1.3165,1.3173,1.3179,0,0,0,0,0,1.341,1.3423,1.3402,1.3394,1.3341,1.3317,1.331,1.3267,1.3246,1.3249,1.3215,1.3181,1.314,1.3129,1.3122,1.3136,1.3096,1.3099,1.3102,1.3162,1.3171,1.3179,0,0,0,0,0,0,1.3478,1.3415,1.3391,1.3388,1.3359,1.3305,1.3309,1.3278,1.3254,1.3249,1.3197,1.3186,1.3182,1.3157,1.3146,1.3145,1.3114,1.3115,1.3162,1.317,1.3177,1.3184,1.3094,0,0,0,0,0,1.3493,1.3479,1.3425,1.3427,1.3414,1.3364,1.3352,1.3321,1.3289,1.3276,1.3241,1.321,1.3191,1.3179,1.3158,1.3161,1.3149,1.3167,1.3174,1.318,1.3182,1.3183,1.319,1.3112,1.3112,1.3112,0,0,1.3523,1.3487,1.3482,1.344,1.3414,1.34,1.3354,1.3342,1.3332,1.3274,1.3262,1.3235,1.3198,1.3195,1.3192,1.3174,1.3201,1.3184,1.3189,1.3188,1.3187,1.3194,1.3201,1.3114,1.3114,1.3114,0,0,1.3572,1.3543,1.3543,1.3517,1.3477,1.3444,1.3444,1.3395,1.3376,1.3363,1.3319,1.3306,1.3273,1.3249,1.3232,1.3272,1.324,1.3266,1.3304,1.3305,1.3311,1.3317,1.3332,1.3338,1.3268,1.3269,1.3269,0,1.3615,1.3593,1.3546,1.3537,1.352,1.3467,1.3466,1.3443,1.3399,1.3389,1.337,1.3328,1.3299,1.3289,1.3299,1.3287,1.3286,1.3272,1.3314,1.3319,1.3323,1.3337,1.3343,1.3272,1.3272,1.3271,1.3271,0,1.3649,1.3634,1.3638,1.3597,1.3581,1.3576,1.3528,1.3517,1.3487,1.3457,1.3445,1.3408,1.3379,1.3374,1.3345,1.3361,1.3351,1.3324,1.3291,1.3335,1.3347,1.3352,1.3277,1.3276,1.3275,1.3274,0,0,1.3739,1.3672,1.3674,1.3655,1.3607,1.3595,1.3588,1.3559,1.3551,1.3522,1.3515,1.3489,1.3463,1.3444,1.3412,1.3413,1.3448,1.3385,1.3384,1.3399,1.3464,1.3485,1.3492,1.3426,1.3426,1.3427,1.3467,0,1.3781,1.3765,1.3722,1.3719,1.3706,1.3655,1.3648,1.3619,1.359,1.3574,1.3541,1.3524,1.3491,1.3479,1.3478,1.3444,1.346,1.344,1.3419,1.3419,1.3432,1.3498,1.3521,1.356,1.3471,1.3472,1.3473,0,1.3828,1.3802,1.3799,1.3752,1.3744,1.374,1.371,1.3696,1.3661,1.3639,1.3619,1.3583,1.3572,1.3541,1.3527,1.3514,1.3503,1.3485,1.3485,1.3483,1.345,1.3498,1.3572,1.3578,1.3479,1.3479,1.3478,0,1.3896,1.386,1.3853,1.3838,1.3784,1.3782,1.3759,1.3722,1.3708,1.3682,1.3672,1.3646,1.3632,1.3612,1.357,1.3551,1.356,1.3525,1.3543,1.3544,1.3548,1.3549,1.3622,1.3539,1.3539,1.3539,1.3539,0,1.3948,1.3947,1.3883,1.3879,1.3878,1.3828,1.3828,1.38,1.3769,1.3758,1.3712,1.3704,1.3648,1.3633,1.36,1.3594,1.3587,1.357,1.3562,1.3575,1.3577,1.3568,1.3564,1.3541,1.354,1.354,1.354,0,1.4024,1.398,1.397,1.3919,1.3906,1.3907,1.3863,1.3858,1.3825,1.3813,1.3807,1.3757,1.3737,1.3693,1.3661,1.3639,1.3641,1.3625,1.3653,1.3648,1.3668,1.3667,1.3738,1.3746,1.3658,1.3659,1.366,0,1.406,1.4059,1.4008,1.3998,1.3977,1.3961,1.3946,1.3897,1.3884,1.3844,1.3843,1.382,1.3798,1.3769,1.373,1.3705,1.3689,1.3715,1.3685,1.3698,1.369,1.3691,1.3691,1.3723,1.3724,1.3725,1.3726,0,1.413,1.4109,1.4089,1.4062,1.4046,1.4022,1.3996,1.3991,1.3936,1.3923,1.3902,1.3885,1.3853,1.383,1.38,1.3776,1.3742,1.3735,1.3738,1.3752,1.3769,1.3761,1.3673,1.3734,1.3733,1.3733,1.3732,1.3732,1.4188,1.4184,1.4148,1.4128,1.4103,1.408,1.4072,1.4039,1.4021,1.3991,1.3963,1.3945,1.391,1.3866,1.3844,1.383,1.3812,1.3817,1.3818,1.382,1.3826,1.3771,1.3824,1.3823,1.3823,1.3823,1.3823,0,1.4256,1.423,1.4212,1.4177,1.4162,1.413,1.41,1.4089,1.4074,1.4044,1.4024,1.4,1.3978,1.3937,1.3911,1.3907,1.3891,1.3903,1.3903,1.3898,1.3842,1.3843,1.3916,1.3916,1.3916,1.3916,1.3916,1.3916,1.429,1.4283,1.4257,1.4238,1.4212,1.4194,1.4179,1.4158,1.4134,1.411,1.4091,1.4064,1.403,1.4002,1.398,1.3968,1.3962,1.3978,1.3962,1.3911,1.3902,1.3894,1.3894,1.3977,1.3977,1.4019,1.4019,1.4019]},{"header":{"parameterUnit":"m.s-1","parameterCategory":1,"la1":30.2991,"la2":30.254,"lo1":-89.0895,"lo2":-89.0444,"dy":0.0017,"dx":0.0017,"nx":28,"ny":28,"refTime":"2024-02-21T09:00:00:Z","depth":0,"parameterNumber":3,"parameterNumberName":"V-component_of_WINDS"},"data":[0,0,0,0,0,0,0,0,0,0,0,0,0,0,0,0,0,0,0,0,0,0,0,0,0,0,0,0,0,0,0,0,0,0,0,0,0,0,0,0,0,0,0,0,0,0,0,0,0,0,0,0,0,0,0,0,0,0,4.4942,4.4942,0,4.4908,4.4908,4.4907,4.4879,4.4879,4.4878,4.4878,4.4843,4.4843,4.4842,0,0,0,0,0,0,0,0,0,0,0,0,0,4.4984,4.4983,4.4942,4.4942,4.4941,4.4908,4.4908,4.4907,4.4879,4.4879,4.4878,4.4878,4.4843,4.4843,4.4842,0,0,0,0,0,0,0,0,0,0,0,0,0,4.4959,4.4983,4.4942,4.4923,4.4921,4.4908,4.4908,4.4907,4.4879,4.4879,4.4878,4.4878,4.4844,4.4843,4.4842,4.4845,0,0,4.4839,4.4838,0,0,0,0,0,0,0,0,4.4961,4.4958,4.4926,4.4925,4.4922,4.4897,4.491,4.4886,4.4879,4.4895,4.4878,4.4878,4.4862,4.4859,4.4854,4.4843,4.4842,4.4839,4.4838,4.4838,4.4837,0,0,0,0,0,0,0,4.4962,4.4959,4.4929,4.4926,4.4923,4.4917,4.4913,4.4905,4.4881,4.4894,4.4892,4.4888,4.486,4.4855,4.4853,4.4841,4.4839,4.4838,4.4837,4.4837,4.4835,4.4836,0,0,0,0,0,0,4.4967,4.4961,4.493,4.4928,4.4941,4.4917,4.4912,4.4906,4.4881,4.4877,4.4888,4.4887,4.4857,4.4854,4.4851,4.4856,4.4838,4.4837,4.4836,4.4835,4.4835,4.4836,0,0,0,0,0,0,4.4968,4.4964,4.4931,4.4944,4.4939,4.4916,4.491,4.4905,4.49,4.4877,4.4873,4.4887,4.4856,4.4853,4.4848,4.4854,4.4836,4.4835,4.4834,4.4835,4.4836,4.4863,0,0,0,0,0,0,4.4969,4.4965,4.4965,4.4944,4.4938,4.4927,4.491,4.4905,4.4898,4.4896,4.4875,4.4871,4.4856,4.4849,4.4847,4.4852,4.4835,4.4833,4.4835,4.4835,4.4861,4.4865,4.4867,0,0,0,0,0,4.4971,4.4973,4.4965,4.4962,4.4938,4.4928,4.4924,4.4907,4.4899,4.49,4.4886,4.4872,4.4854,4.4849,4.4846,4.4851,4.4833,4.4834,4.4835,4.486,4.4864,4.4867,0,0,0,0,0,0,4.4995,4.497,4.4961,4.4957,4.4945,4.4923,4.4923,4.4911,4.4901,4.4899,4.4877,4.4873,4.4871,4.486,4.4855,4.4855,4.4842,4.4842,4.4862,4.4865,4.4868,4.4871,4.4834,0,0,0,0,0,4.5,4.4994,4.4972,4.497,4.4965,4.4945,4.494,4.4928,4.4914,4.4909,4.4894,4.4882,4.4874,4.4869,4.486,4.486,4.4856,4.4863,4.4866,4.4868,4.4869,4.4872,4.4875,4.484,4.484,4.484,0,0,4.501,4.4996,4.4992,4.4975,4.4964,4.4959,4.4941,4.4935,4.4931,4.4908,4.4903,4.4892,4.4877,4.4875,4.4874,4.4867,4.4878,4.487,4.4872,4.4871,4.4873,4.4877,4.4879,4.4841,4.4841,4.4841,0,0,4.5026,4.5013,4.5012,4.5002,4.4987,4.4974,4.4974,4.4955,4.4947,4.4942,4.4925,4.492,4.4906,4.4897,4.4891,4.4907,4.4894,4.4904,4.492,4.4923,4.4926,4.4928,4.4936,4.4939,4.4905,4.4905,4.4905,0,4.504,4.503,4.5012,4.5009,4.5002,4.4983,4.4982,4.4973,4.4955,4.4952,4.4944,4.4929,4.4917,4.4914,4.4919,4.4913,4.4914,4.4907,4.4927,4.4929,4.4931,4.4938,4.4941,4.4907,4.4907,4.4907,4.4906,0,4.505,4.5044,4.5045,4.503,4.5024,4.5021,4.5004,4.5,4.4989,4.4978,4.4975,4.496,4.495,4.4948,4.4936,4.4945,4.4941,4.493,4.4917,4.4936,4.4943,4.4945,4.4909,4.4908,4.4908,4.4908,0,0,4.5077,4.5055,4.5056,4.505,4.5033,4.5028,4.5027,4.5017,4.5015,4.5004,4.5003,4.4993,4.4984,4.4977,4.4965,4.4967,4.4984,4.4956,4.4956,4.4964,4.4995,4.5005,4.5008,4.4976,4.4976,4.4977,4.4997,0,4.5091,4.5086,4.5072,4.5072,4.5067,4.505,4.5049,4.5039,4.5029,4.5025,4.5014,4.5008,4.4995,4.4992,4.4993,4.4982,4.499,4.498,4.4976,4.4976,4.4981,4.5011,4.502,4.504,4.5,4.5,4.5,0,4.5105,4.5098,4.5098,4.5084,4.5082,4.5081,4.5073,4.5068,4.5058,4.5051,4.5045,4.5032,4.5031,4.5019,4.5018,4.5011,4.5009,4.5004,4.5004,4.5003,4.499,4.5013,4.5046,4.5049,4.5004,4.5003,4.5003,0,4.5128,4.5118,4.5117,4.5112,4.5096,4.5096,4.5089,4.5079,4.5075,4.5068,4.5066,4.5059,4.5055,4.505,4.5037,4.5029,4.5039,4.5024,4.5034,4.5035,4.5037,4.5037,4.5072,4.5034,4.5034,4.5034,4.5034,0,4.5145,4.5146,4.5127,4.5127,4.5129,4.5113,4.5115,4.5107,4.5098,4.5097,4.5081,4.5081,4.5063,4.5061,4.505,4.5053,4.5051,4.5046,4.5044,4.5048,4.5049,4.5047,4.5046,4.5035,4.5035,4.5035,4.5034,0,4.517,4.5157,4.5156,4.5142,4.5138,4.514,4.5129,4.5129,4.5119,4.5118,4.5117,4.5102,4.5099,4.5086,4.5079,4.5072,4.5079,4.5073,4.5083,4.5082,4.5093,4.5093,4.5128,4.5133,4.5091,4.5091,4.5092,0,4.5182,4.5183,4.517,4.5168,4.5163,4.516,4.5157,4.5143,4.514,4.5131,4.5132,4.5129,4.5125,4.5122,4.5111,4.5107,4.5101,4.5114,4.51,4.5106,4.5104,4.5105,4.5106,4.5117,4.5117,4.5118,4.5118,0,4.5205,4.52,4.5196,4.5191,4.5189,4.5184,4.5178,4.5178,4.5162,4.5161,4.5158,4.5155,4.515,4.5148,4.5143,4.5137,4.5126,4.5123,4.5125,4.513,4.5137,4.5136,4.5092,4.5122,4.5122,4.5121,4.5121,4.5121,4.5225,4.5226,4.5218,4.5216,4.521,4.5206,4.5207,4.5198,4.5196,4.5191,4.5183,4.5183,4.5176,4.5168,4.5164,4.5164,4.5157,4.516,4.5161,4.5162,4.5166,4.5137,4.5163,4.5163,4.5162,4.5162,4.5162,0,4.5249,4.5244,4.5242,4.5235,4.5234,4.5225,4.5219,4.5219,4.5219,4.5213,4.5211,4.521,4.5208,4.5199,4.5197,4.5199,4.5194,4.5199,4.5199,4.5199,4.5171,4.517,4.5203,4.5203,4.5203,4.5203,4.5203,4.5203,4.5261,4.5264,4.5258,4.5259,4.5254,4.5254,4.5252,4.5249,4.5245,4.5245,4.5244,4.5238,4.5232,4.523,4.5229,4.5226,4.5227,4.5234,4.523,4.5204,4.52,4.5196,4.5195,4.5234,4.5234,4.5258,4.5258,4.5258]}]]